Location: Charlottesville
(38.0290°N, 78.4770°W)
Time: 03:13:56
(UTC-05:00)

Tiangong 2 - Pass Details

Date: 10 October 2017
Orbit: 386 x 390 km, 42.8° (Epoch: 11 December)

Event Time Altitude Azimuth Distance (km) Brightness Sun altitude
Exits shadow 05:37:15 69° 107° (ESE) 421 1.3 -20.6°
Drops below altitude 10° 05:40:11 10° 70° (ENE) 1,423 5.1 -20.0°
Sets 05:42:17 0° 69° (ENE) 2,282 6.4 -19.6°
